| time (UTC) | temp F | wind direction | speed MPH | gust MPH | rain 1hr in | rain 24hr in | rain mn in | humidity % | barometer mb |
| 20260504081523 | 49 | 263 | 0.0 | 0.0 | 0.00 | 0.00 | 0.00 | 95 | 1018.3 |
| 20260504050017 | 52 | 263 | 0.0 | 0.0 | 0.00 | 0.00 | 0.00 | 93 | 1019.5 |
| 20260504044535 | 52 | 263 | 0.0 | 0.0 | 0.00 | 0.00 | 0.00 | 93 | 1019.5 |
| 20260504043033 | 52 | 263 | 0.0 | 0.0 | 0.00 | 0.00 | 0.00 | 93 | 1019.5 |
| 20260504041512 | 53 | 263 | 0.0 | 0.0 | 0.00 | 0.00 | 0.00 | 92 | 1019.6 |
| 20260504040016 | 53 | 263 | 0.0 | 0.0 | 0.00 | 0.00 | 0.00 | 92 | 1019.6 |
| 20260504034533 | 53 | 262 | 0.0 | 0.0 | 0.00 | 0.00 | 0.00 | 91 | 1019.8 |
| 20260504033035 | 54 | 263 | 0.0 | 0.0 | 0.00 | 0.00 | 0.00 | 91 | 1019.8 |
| 20260504031528 | 54 | 263 | 0.0 | 0.0 | 0.00 | 0.00 | 0.00 | 90 | 1019.8 |
| 20260504030014 | 54 | 263 | 0.0 | 0.0 | 0.00 | 0.00 | 0.00 | 90 | 1019.8 |
| 20260504024522 | 55 | 263 | 0.0 | 0.0 | 0.00 | 0.00 | 0.00 | 89 | 1019.6 |
| 20260504023022 | 55 | 263 | 0.0 | 0.0 | 0.00 | 0.00 | 0.00 | 88 | 1019.3 |
| 20260504021533 | 56 | 263 | 0.0 | 0.0 | 0.00 | 0.00 | 0.00 | 87 | 1019.2 |
| 20260504020014 | 56 | 263 | 0.0 | 0.0 | 0.00 | 0.00 | 0.00 | 86 | 1019.0 |
| 20260504014515 | 57 | 263 | 0.0 | 0.0 | 0.00 | 0.00 | 0.00 | 84 | 1018.8 |
| 20260504013033 | 58 | 263 | 0.0 | 0.0 | 0.00 | 0.00 | 0.00 | 83 | 1018.6 |
| 20260504011524 | 59 | 263 | 0.0 | 0.0 | 0.00 | 0.00 | 0.00 | 81 | 1018.6 |
| 20260504010033 | 61 | 263 | 0.0 | 0.0 | 0.00 | 0.00 | 0.00 | 78 | 1018.5 |
| 20260504004513 | 62 | 263 | 0.0 | 0.0 | 0.00 | 0.00 | 0.00 | 74 | 1018.3 |
| 20260504003015 | 64 | 262 | 0.0 | 0.0 | 0.00 | 0.00 | 0.00 | 70 | 1018.3 |
| 20260504001522 | 66 | 263 | 0.0 | 0.0 | 0.00 | 0.00 | 0.00 | 66 | 1018.2 |
| 20260504000027 | 69 | 263 | 0.0 | 0.0 | 0.00 | 0.00 | 0.00 | 63 | 1018.3 |
| 20260503234527 | 71 | 262 | 0.0 | 0.0 | 0.00 | 0.00 | 0.00 | 54 | 1018.3 |
| 20260503233013 | 73 | 263 | 0.0 | 1.0 | 0.00 | 0.00 | 0.00 | 44 | 1018.4 |
| 20260503231520 | 75 | 15 | 1.0 | 2.0 | 0.00 | 0.00 | 0.00 | 37 | 1018.4 |
| 20260503230026 | 77 | 238 | 0.0 | 3.0 | 0.00 | 0.00 | 0.00 | 36 | 1018.4 |
| 20260503224527 | 77 | 248 | 1.0 | 3.0 | 0.00 | 0.00 | 0.00 | 35 | 1018.5 |
| 20260503223029 | 76 | 223 | 1.0 | 6.0 | 0.00 | 0.00 | 0.00 | 38 | 1018.5 |
| 20260503221529 | 77 | 330 | 1.0 | 5.0 | 0.00 | 0.00 | 0.00 | 37 | 1018.5 |
| 20260503220022 | 77 | 319 | 3.0 | 7.0 | 0.00 | 0.00 | 0.00 | 36 | 1018.7 |
| 20260503214526 | 77 | 233 | 3.0 | 6.0 | 0.00 | 0.00 | 0.00 | 36 | 1018.8 |
| 20260503213032 | 77 | 203 | 1.0 | 7.0 | 0.00 | 0.00 | 0.00 | 36 | 1019.1 |
| 20260503211529 | 76 | 285 | 2.0 | 7.0 | 0.00 | 0.00 | 0.00 | 39 | 1019.3 |
| 20260503210021 | 76 | 233 | 3.0 | 7.0 | 0.00 | 0.00 | 0.00 | 35 | 1019.5 |
| 20260503204526 | 76 | 87 | 2.0 | 8.0 | 0.00 | 0.00 | 0.00 | 35 | 1019.7 |
| 20260503203029 | 76 | 301 | 1.0 | 9.0 | 0.00 | 0.00 | 0.00 | 37 | 1019.8 |
| 20260503201531 | 76 | 88 | 1.0 | 8.0 | 0.00 | 0.00 | 0.00 | 37 | 1020.1 |
| 20260503200033 | 76 | 64 | 3.0 | 6.0 | 0.00 | 0.00 | 0.00 | 34 | 1020.3 |
| 20260503194527 | 76 | 288 | 0.0 | 6.0 | 0.00 | 0.00 | 0.00 | 34 | 1020.5 |
| 20260503193026 | 76 | 297 | 2.0 | 6.0 | 0.00 | 0.00 | 0.00 | 35 | 1020.9 |
| 20260503191528 | 75 | 271 | 1.0 | 5.0 | 0.00 | 0.00 | 0.00 | 37 | 1021.1 |
| 20260503190017 | 75 | 287 | 1.0 | 5.0 | 0.00 | 0.00 | 0.00 | 38 | 1021.4 |
| 20260503184517 | 75 | 239 | 2.0 | 6.0 | 0.00 | 0.00 | 0.00 | 41 | 1021.7 |
| 20260503183020 | 74 | 68 | 3.0 | 9.0 | 0.00 | 0.00 | 0.00 | 40 | 1021.9 |
| 20260503181508 | 75 | 250 | 2.0 | 4.0 | 0.00 | 0.00 | 0.00 | 36 | 1022.0 |
| 20260503180008 | 74 | 251 | 4.0 | 9.0 | 0.00 | 0.00 | 0.00 | 36 | 1022.1 |
| 20260503174508 | 74 | 311 | 1.0 | 2.0 | 0.00 | 0.00 | 0.00 | 35 | 1022.3 |
| 20260503173028 | 74 | 276 | 1.0 | 7.0 | 0.00 | 0.00 | 0.00 | 38 | 1022.4 |
| 20260503171512 | 73 | 86 | 1.0 | 6.0 | 0.00 | 0.00 | 0.00 | 37 | 1022.6 |